1504897200.09,27575,17.31,73710.8,3.11,-28.79,-28.97,0,*7C
1504897201.31,27576,17.31,73712.3,3.09,-28.79,-28.97,0,*76
1504897202.56,27577,17.31,73712.0,3.09,-29.01,-29.13,0,*74
1504897203.82,27578,17.31,73710.8,3.11,-29.13,-29.17,0,*75
1504897205.06,27579,17.31,73716.5,3.09,-29.01,-29.13,0,*7A
1504897206.28,27580,17.31,73718.0,3.09,-28.97,-29.13,0,*72
1504897207.5,27581,17.31,73718.8,3.11,-28.53,-28.69,0,*7E
1504897208.75,27582,17.31,73718.0,3.11,-28.43,-28.53,0,*75
1504897209.99,27583,17.31,73712.8,3.11,-28.31,-28.43,0,*70
1504897211.26,27584,17.31,73712.8,3.11,-28.47,-28.43,0,*76
1504897212.5,27585,17.31,73716.3,3.11,-28.31,-28.43,0,*76
1504897213.77,27586,17.31,73714.0,3.11,-28.43,-28.43,0,*70
1504897214.99,27587,17.31,73712.5,3.09,-28.47,-28.53,0,*7D
1504897216.23,27588,17.31,73716.3,3.11,-28.47,-28.53,0,*7B
1504897217.43,27589,17.31,73714.0,3.13,-28.37,-28.37,0,*7D
1504897218.69,27590,17.31,73712.3,3.13,-28.25,-28.21,0,*71
1504897219.92,27591,17.31,73708.0,3.13,-28.21,-28.37,0,*73
1504897221.17,27592,17.31,73710.5,3.13,-28.59,-28.63,0,*7E
1504897222.42,27593,17.31,73708.5,3.13,-28.59,-28.75,0,*78
1504897223.68,27594,17.31,73708.3,3.15,-28.63,-28.79,0,*7C
1504897224.91,27595,17.31,73706.8,3.13,-28.91,-29.07,0,*7E
1504897226.14,27596,17.31,73712.5,3.15,-29.07,-29.13,0,*70
1504897227.36,27597,17.31,73714.8,3.13,-28.75,-29.07,0,*76
1504897228.63,27598,17.31,73708.8,3.15,-28.59,-28.75,0,*75
1504897229.87,27599,17.31,73708.0,3.13,-28.63,-28.79,0,*77
1504897231.12,27600,17.31,73708.3,3.13,-28.79,-28.91,0,*79
1504897232.37,27601,17.31,73710.8,3.13,-28.63,-28.79,0,*75
1504897233.61,27602,17.31,73712.5,3.13,-28.63,-28.75,0,*7A
1504897234.88,27603,17.31,73704.5,3.15,-28.47,-28.47,0,*7A
1504897236.1,27604,17.31,73708.3,3.15,-28.37,-28.37,0,*7D
1504897237.34,27605,17.31,73714.8,3.13,-28.59,-28.79,0,*78
1504897238.59,27606,17.31,73712.8,3.13,-28.75,-28.75,0,*79
1504897239.83,27607,17.31,73718.3,3.13,-28.59,-28.79,0,*7A
1504897241.03,27608,17.31,73712.8,3.13,-28.37,-28.37,0,*77
1504897242.29,27609,17.31,73710.3,3.13,-28.21,-28.43,0,*72
1504897243.55,27610,17.31,73708.8,3.15,-28.43,-28.47,0,*7C
1504897244.82,27611,17.31,73712.8,3.15,-28.63,-28.79,0,*72
1504897246.06,27612,17.31,73712.5,3.13,-28.47,-28.47,0,*7C
1504897247.28,27613,17.31,73716.8,3.15,-28.37,-28.37,0,*7B
1504897248.51,27614,17.31,73716.0,3.17,-28.37,-28.43,0,*7D
1504897249.74,27615,17.31,73716.5,3.17,-28.05,-28.15,0,*7E
1504897250.97,27616,17.31,73716.0,3.17,-28.05,-28.15,0,*7D
1504897252.19,27617,17.31,73712.5,3.17,-27.83,-27.89,0,*77
1504897253.44,27618,17.31,73710.3,3.17,-27.83,-28.05,0,*73
1504897254.64,27619,17.31,73708.0,3.17,-27.67,-27.71,0,*74
1504897255.87,27620,17.31,73710.8,3.17,-27.29,-27.45,0,*73
1504897257.12,27621,17.31,73712.3,3.19,-27.99,-28.15,0,*7D
1504897258.37,27622,17.31,73714.8,3.19,-27.61,-27.77,0,*72
1504897259.62,27623,17.31,73710.8,3.19,-27.45,-27.51,0,*71
1504897260.89,27624,17.31,73712.8,3.19,-27.83,-27.99,0,*78
1504897262.09,27625,17.31,73718.3,3.21,-27.51,-27.67,0,*7C
1504897263.29,27626,17.31,73716.5,3.21,-27.67,-27.77,0,*7B
1504897264.52,27627,17.31,73714.8,3.25,-27.61,-27.77,0,*78
1504897265.72,27628,17.31,73714.8,3.25,-27.71,-27.89,0,*77
1504897266.91,27629,17.31,73716.0,3.25,-27.89,-27.93,0,*7A
1504897268.16,27630,17.31,73718.5,3.25,-28.09,-28.21,0,*73
1504897269.39,27631,17.31,73714.3,3.27,-28.31,-28.31,0,*7A
1504897270.64,27632,17.31,73714.8,3.25,-28.05,-28.09,0,*77
1504897271.88,27633,17.31,73716.0,3.27,-28.31,-28.43,0,*7D
1504897273.15,27634,17.31,73716.5,3.27,-28.43,-28.63,0,*7D
1504897274.43,27635,17.31,73712.8,3.27,-28.43,-28.59,0,*75
1504897275.67,27636,17.31,73712.5,3.25,-28.43,-28.59,0,*74
1504897276.93,27637,17.31,73712.0,3.27,-28.75,-28.79,0,*70
1504897278.18,27638,17.31,73716.0,3.25,-28.63,-28.91,0,*7C
1504897279.42,27639,17.31,73718.5,3.25,-28.63,-28.75,0,*77
1504897280.62,27640,17.31,73716.8,3.21,-28.69,-28.69,0,*7A
1504897281.87,27641,17.31,73718.5,3.25,-28.47,-28.63,0,*79
1504897283.11,27642,17.31,73716.5,3.25,-28.63,-28.75,0,*7B
1504897284.33,27643,17.31,73716.3,3.25,-28.31,-28.47,0,*7C
1504897285.55,27644,17.31,73714.5,3.25,-28.31,-28.59,0,*74
1504897286.75,27645,17.31,73712.5,3.25,-28.31,-28.31,0,*7B
1504897287.97,27646,17.31,73708.5,3.25,-28.31,-28.43,0,*7D
1504897289.17,27647,17.31,73708.8,3.25,-28.37,-28.37,0,*79
1504897290.41,27648,17.31,73710.8,3.25,-28.25,-28.47,0,*72
1504897291.63,27649,17.31,73710.3,3.25,-28.31,-28.47,0,*76
1504897292.85,27650,17.31,73708.8,3.25,-28.31,-28.43,0,*7A
1504897294.09,27651,17.31,73708.5,3.27,-28.31,-28.43,0,*79
1504897295.37,27652,17.31,73708.5,3.27,-28.25,-28.47,0,*7B
1504897296.63,27653,17.31,73710.8,3.29,-28.21,-28.21,0,*70
1504897297.91,27654,17.31,73710.3,3.27,-28.25,-28.25,0,*79
1504897299.16,27655,17.31,73710.3,3.27,-28.25,-28.31,0,*7D
1504897300.43,27656,17.31,73710.0,3.27,-28.47,-28.59,0,*74
1504897301.7,27657,17.31,73712.0,3.27,-28.43,-28.47,0,*7E
1504897302.93,27658,17.31,73712.5,3.29,-28.37,-28.43,0,*78
1504897304.19,27659,17.31,73712.0,3.27,-28.59,-28.75,0,*7A
1504897305.46,27660,17.31,73712.3,3.27,-28.63,-28.75,0,*79
1504897306.74,27661,17.31,73708.3,3.27,-28.63,-28.63,0,*7F
1504897308.01,27662,17.31,73708.3,3.27,-28.75,-28.91,0,*76
1504897309.26,27663,17.31,73710.0,3.27,-28.91,-28.97,0,*7B
1504897310.5,27664,17.31,73710.5,3.27,-28.97,-29.13,0,*77
1504897311.71,27665,17.31,73718.0,3.27,-29.07,-29.07,0,*7B
1504897312.93,27666,17.31,73712.3,3.25,-28.79,-28.97,0,*7A
1504897314.18,27667,17.31,73716.3,3.25,-28.79,-28.91,0,*7D
1504897315.43,27668,17.31,73718.3,3.21,-28.79,-29.01,0,*7E
1504897316.68,27669,17.31,73712.3,3.21,-28.79,-29.01,0,*7F
1504897317.9,27670,17.31,73716.0,3.25,-28.79,-28.97,0,*7D
1504897319.11,27671,17.31,73714.8,3.21,-28.97,-29.13,0,*75
1504897320.36,27672,17.31,73716.0,3.21,-29.01,-29.17,0,*7C
1504897321.55,27673,17.25,73712.5,3.25,-29.07,-29.07,0,*7E
1504897322.77,27674,17.31,73712.8,3.25,-29.07,-29.29,0,*75
1504897324.02,27675,17.31,73716.3,3.21,-29.29,-29.35,0,*71
1504897325.27,27676,17.31,73718.8,3.21,-29.29,-29.39,0,*7E
1504897326.49,27677,17.31,73718.3,3.21,-29.29,-29.57,0,*77
1504897327.76,27678,17.31,73716.5,3.19,-29.29,-29.39,0,*7B
1504897329.03,27679,17.31,73714.5,3.19,-29.29,-29.35,0,*76
1504897330.29,27680,17.31,73716.8,3.17,-29.35,-29.39,0,*7F
1504897331.51,27681,17.31,73716.5,3.17,-29.23,-29.39,0,*79
1504897332.74,27682,17.31,73716.8,3.17,-29.23,-29.35,0,*76
1504897333.99,27683,17.31,73718.0,3.21,-29.35,-29.29,0,*78
1504897335.22,27684,17.31,73714.3,3.17,-29.23,-29.35,0,*70
1504897336.41,27685,17.31,73714.3,3.17,-29.23,-29.23,0,*76
1504897337.67,27686,17.31,73716.0,3.15,-29.13,-29.13,0,*77
1504897338.91,27687,17.31,73716.3,3.15,-28.97,-29.13,0,*7B
1504897340.12,27688,17.31,73716.5,3.15,-28.97,-29.23,0,*77
1504897341.38,27689,17.31,73718.5,3.15,-29.13,-29.29,0,*71
1504897342.66,27690,17.31,73716.8,3.15,-29.39,-29.39,0,*70
1504897343.91,27691,17.31,73716.8,3.17,-29.35,-29.39,0,*7F
1504897345.17,27692,17.31,73716.5,3.15,-29.39,-29.67,0,*79
1504897346.4,27693,17.31,73718.3,3.13,-29.39,-29.45,0,*7E
1504897347.62,27694,17.31,73722.5,3.13,-29.29,-29.45,0,*78
1504897348.87,27695,17.31,73716.0,3.13,-29.29,-29.39,0,*72
1504897350.1,27696,17.31,73718.5,3.13,-29.39,-29.45,0,*7B
1504897351.34,27697,17.31,73716.5,3.13,-29.13,-29.29,0,*78
1504897352.61,27698,17.31,73716.8,3.11,-29.17,-29.29,0,*71
1504897353.82,27699,17.31,73716.0,3.13,-29.13,-29.23,0,*7C
1504897355.1,27700,17.31,73716.5,3.11,-29.17,-29.35,0,*7C
1504897356.35,27701,17.31,73718.8,3.11,-29.29,-29.45,0,*77
1504897357.59,27702,17.31,73722.0,3.11,-29.29,-29.45,0,*74
1504897358.82,27703,17.31,73716.0,3.11,-29.45,-29.45,0,*7F
1504897360.07,27704,17.31,73720.3,3.13,-29.29,-29.39,0,*7B
1504897361.31,27705,17.31,73720.0,3.09,-29.17,-29.17,0,*70
1504897362.53,27706,17.31,73718.5,3.11,-28.85,-28.97,0,*79
1504897363.8,27707,17.31,73718.8,3.11,-28.79,-29.01,0,*75
1504897365.04,27708,17.31,73716.5,3.11,-28.97,-29.13,0,*79
1504897366.29,27709,17.31,73718.5,3.11,-28.85,-29.01,0,*78
1504897367.53,27710,17.31,73716.8,3.11,-28.97,-29.13,0,*70
1504897368.8,27711,17.31,73716.8,3.11,-29.13,-29.13,0,*7C
1504897370.06,27712,17.31,73718.5,3.11,-29.01,-29.13,0,*7C
1504897371.3,27713,17.31,73718.3,3.11,-28.69,-29.13,0,*72
1504897372.5,27714,17.31,73722.5,3.09,-28.69,-28.85,0,*72
1504897373.75,27715,17.25,73718.5,3.11,-28.85,-29.01,0,*75
1504897375.02,27716,17.31,73716.5,3.11,-29.17,-29.17,0,*7B
1504897376.26,27717,17.31,73720.8,3.11,-28.97,-29.01,0,*74
1504897377.49,27718,17.31,73718.0,3.09,-29.29,-29.45,0,*76
1504897378.71,27719,17.31,73716.3,3.11,-29.45,-29.45,0,*74
1504897379.94,27720,17.31,73720.8,3.09,-29.35,-29.57,0,*73
1504897381.17,27721,17.31,73722.8,3.09,-29.45,-29.51,0,*73
1504897382.43,27722,17.25,73720.3,3.07,-29.51,-29.61,0,*78
1504897383.69,27723,17.31,73722.5,3.07,-29.51,-29.57,0,*7C
1504897384.95,27724,17.25,73720.0,3.07,-29.51,-29.57,0,*7B
1504897386.21,27725,17.31,73722.3,3.05,-29.35,-29.39,0,*72
1504897387.44,27726,17.31,73720.3,3.05,-28.91,-29.07,0,*73
1504897388.69,27727,17.31,73720.0,3.05,-28.75,-28.91,0,*76
1504897389.94,27728,17.31,73716.8,3.05,-28.91,-29.17,0,*7C
1504897391.19,27729,17.31,73720.0,3.09,-29.01,-29.17,0,*79
1504897392.44,27730,17.31,73718.5,3.05,-28.75,-29.01,0,*78
1504897393.7,27731,17.31,73716.0,3.07,-28.85,-28.91,0,*7C
1504897394.92,27732,17.31,73718.0,3.07,-29.07,-29.23,0,*7C
1504897396.2,27733,17.25,73718.0,3.07,-29.35,-29.39,0,*77
1504897397.48,27734,17.31,73720.0,3.07,-29.35,-29.51,0,*7E
1504897398.75,27735,17.31,73720.3,3.05,-29.35,-29.51,0,*7D
1504897400.01,27736,17.31,73718.8,3.05,-29.35,-29.51,0,*7E
1504897401.25,27737,17.31,73718.0,3.05,-29.39,-29.57,0,*75
1504897402.47,27738,17.31,73716.3,3.05,-29.23,-29.39,0,*79
1504897403.67,27739,17.31,73720.3,3.05,-29.07,-29.23,0,*75
1504897404.93,27740,17.31,73716.0,3.05,-29.35,-29.39,0,*71
1504897406.16,27741,17.31,73716.3,3.05,-29.23,-29.39,0,*77
1504897407.38,27742,17.25,73718.5,3.05,-29.17,-29.23,0,*78
1504897408.64,27743,17.31,73720.0,3.05,-29.35,-29.35,0,*7E
1504897409.87,27744,17.25,73718.0,3.05,-29.01,-29.23,0,*79
1504897411.09,27745,17.31,73722.0,3.01,-28.79,-28.97,0,*7C
1504897412.33,27746,17.25,73716.8,3.01,-29.13,-29.29,0,*76
1504897413.57,27747,17.25,73718.5,3.01,-29.01,-29.29,0,*74
1504897414.82,27748,17.31,73720.5,3.01,-29.01,-29.29,0,*7B
1504897416.04,27749,17.31,73718.0,3.01,-28.79,-28.97,0,*70
1504897417.29,27750,17.25,73716.3,3.05,-28.47,-28.59,0,*73
1504897418.5,27751,17.31,73720.3,3.01,-28.69,-28.85,0,*7B
1504897419.72,27752,17.31,73716.5,3.01,-28.59,-28.69,0,*79
1504897420.92,27753,17.31,73716.3,3.01,-28.69,-28.97,0,*7A
1504897422.17,27754,17.31,73716.0,3.01,-28.79,-29.01,0,*72
1504897423.42,27755,17.25,73714.8,3.05,-28.91,-29.17,0,*76
1504897424.67,27756,17.31,73714.8,3.05,-29.01,-29.17,0,*7D
1504897425.9,27757,17.31,73716.8,3.05,-29.01,-29.07,0,*7D
1504897427.17,27758,17.31,73712.3,3.07,-28.75,-28.91,0,*7C
1504897428.42,27759,17.25,73710.3,3.05,-28.59,-28.75,0,*7B
1504897429.63,27760,17.31,73714.5,3.05,-28.69,-28.85,0,*7D
1504897430.86,27761,17.31,73714.5,3.05,-28.85,-29.01,0,*73
1504897432.06,27762,17.31,73712.5,3.05,-28.85,-29.07,0,*76
1504897433.31,27763,17.25,73710.3,3.05,-28.75,-29.01,0,*7E
1504897434.56,27764,17.31,73712.0,3.05,-28.75,-29.01,0,*79
1504897435.81,27765,17.31,73714.8,3.05,-29.01,-29.17,0,*7D
1504897437.03,27766,17.25,73712.8,3.05,-29.01,-29.23,0,*79
1504897438.23,27767,17.31,73714.3,3.05,-29.23,-29.23,0,*78
1504897439.51,27768,17.25,73712.8,3.07,-29.17,-29.35,0,*75
1504897440.77,27769,17.31,73716.8,3.01,-29.17,-29.35,0,*72
1504897442.02,27770,17.25,73714.0,3.01,-29.13,-29.35,0,*7E
1504897443.25,27771,17.25,73716.0,3.01,-29.35,-29.45,0,*7C
1504897444.5,27772,17.25,73716.5,3.01,-29.29,-29.35,0,*75
1504897445.73,27773,17.31,73718.8,3.01,-29.35,-29.45,0,*7E
1504897446.98,27774,17.25,73716.5,3.01,-29.13,-29.35,0,*7A
1504897448.26,27775,17.31,73716.0,2.97,-29.13,-29.35,0,*75
1504897449.52,27776,17.31,73718.3,3.01,-29.17,-29.35,0,*7C
1504897450.81,27777,17.25,73716.8,2.97,-29.35,-29.51,0,*71
1504897452.09,27778,17.25,73712.5,2.97,-29.35,-29.51,0,*7E
1504897453.35,27779,17.31,73718.0,3.01,-29.35,-29.51,0,*71
1504897454.58,27780,17.31,73716.8,2.97,-29.45,-29.61,0,*7D
1504897455.82,27781,17.25,73714.3,2.97,-29.45,-29.61,0,*7C
1504897457.07,27782,17.31,73718.0,2.95,-29.35,-29.51,0,*79
1504897458.33,27783,17.31,73716.3,2.95,-29.39,-29.51,0,*74
1504897459.56,27784,17.25,73714.5,2.95,-29.51,-29.57,0,*7B
1504897460.81,27785,17.25,73714.0,2.93,-29.23,-29.39,0,*71
1504897462.05,27786,17.31,73716.0,2.93,-28.91,-29.23,0,*71
1504897463.28,27787,17.31,73722.3,2.95,-28.91,-29.23,0,*76
1504897464.55,27788,17.25,73714.0,2.93,-29.17,-29.35,0,*77
1504897465.74,27789,17.25,73718.5,2.95,-29.07,-29.23,0,*76
1504897466.99,27790,17.31,73716.3,2.93,-29.07,-29.35,0,*7F
1504897468.24,27791,17.25,73718.0,2.95,-29.01,-29.17,0,*7E
1504897469.51,27792,17.25,73718.5,2.93,-29.17,-29.35,0,*7C
1504897470.78,27793,17.31,73722.0,2.93,-29.17,-29.39,0,*71
1504897472.01,27794,17.25,73718.5,2.95,-29.35,-29.57,0,*78
1504897473.27,27795,17.25,73718.3,2.93,-29.51,-29.57,0,*7D
1504897474.5,27796,17.31,73722.0,2.93,-29.57,-29.67,0,*7B
1504897475.76,27797,17.31,73722.0,2.93,-29.39,-29.57,0,*71
1504897477.01,27798,17.25,73718.8,2.93,-29.39,-29.67,0,*7D
1504897478.24,27799,17.25,73720.8,2.91,-29.45,-29.73,0,*70
1504897479.45,27800,17.31,73722.3,2.91,-29.57,-29.61,0,*7F
1504897480.7,27801,17.31,73722.3,2.93,-29.51,-29.67,0,*7C
1504897481.93,27802,17.25,73720.3,2.91,-29.61,-29.73,0,*7B
1504897483.16,27803,17.31,73720.3,2.89,-29.61,-29.61,0,*70
1504897484.39,27804,17.25,73716.8,2.89,-29.45,-29.61,0,*71
1504897485.62,27805,17.25,73716.3,2.89,-29.45,-29.61,0,*70
1504897486.9,27806,17.25,73718.3,2.89,-29.17,-29.51,0,*77
1504897488.17,27807,17.25,73718.8,2.89,-29.35,-29.45,0,*73
1504897489.44,27808,17.25,73720.0,2.89,-29.13,-29.35,0,*7F
1504897490.67,27809,17.25,73718.5,2.87,-29.13,-29.45,0,*77
1504897491.92,27810,17.25,73718.3,2.89,-29.29,-29.45,0,*78
1504897493.2,27811,17.25,73714.5,2.89,-29.17,-29.35,0,*73
1504897494.46,27812,17.31,73718.0,2.89,-29.29,-29.45,0,*7A
1504897495.67,27813,17.25,73714.3,2.87,-29.45,-29.45,0,*7F
1504897496.9,27814,17.25,73718.5,2.89,-29.45,-29.61,0,*70
1504897498.16,27815,17.25,73718.8,2.89,-29.45,-29.51,0,*72
1504897499.42,27816,17.31,73716.3,2.89,-29.45,-29.51,0,*71
1504897500.68,27817,17.25,73716.8,2.85,-29.39,-29.57,0,*71
1504897501.93,27818,17.31,73718.8,2.87,-29.17,-29.35,0,*74
1504897503.19,27819,17.31,73718.8,2.87,-29.13,-29.35,0,*71
1504897504.44,27820,17.31,73716.3,2.87,-29.01,-29.35,0,*78
1504897505.69,27821,17.25,73714.8,2.87,-29.13,-29.29,0,*77
1504897506.97,27822,17.31,73720.0,2.85,-29.35,-29.39,0,*73
1504897508.19,27823,17.25,73718.0,2.85,-29.07,-29.23,0,*78
1504897509.44,27824,17.25,73718.0,2.87,-29.01,-29.17,0,*7C
1504897510.64,27825,17.25,73716.8,2.87,-28.85,-28.97,0,*79
1504897511.86,27826,17.25,73716.3,2.87,-28.97,-29.13,0,*74
1504897513.1,27827,17.25,73712.0,2.87,-29.13,-29.29,0,*71
1504897514.36,27828,17.25,73712.0,2.85,-29.07,-29.35,0,*74
1504897515.61,27829,17.31,73716.3,2.87,-29.17,-29.35,0,*76
1504897516.86,27830,17.25,73718.5,2.85,-29.01,-29.23,0,*7C
1504897518.09,27831,17.25,73712.3,2.87,-28.85,-29.01,0,*72
1504897519.37,27832,17.25,73718.0,2.85,-28.91,-29.01,0,*76
1504897520.6,27833,17.25,73718.0,2.85,-28.85,-29.07,0,*74
1504897521.82,27834,17.25,73718.5,2.85,-28.85,-29.07,0,*73
1504897523.02,27835,17.25,73716.3,2.87,-28.85,-28.97,0,*78
1504897524.25,27836,17.31,73722.0,2.87,-28.97,-29.17,0,*71
1504897525.53,27837,17.25,73718.5,2.85,-28.91,-29.01,0,*73
1504897526.77,27838,17.25,73716.5,2.87,-28.79,-28.79,0,*76
1504897528.02,27839,17.25,73718.8,2.87,-28.59,-28.75,0,*79
1504897529.28,27840,17.25,73718.8,2.87,-28.59,-28.63,0,*70
1504897530.5,27841,17.25,73718.0,2.87,-28.79,-28.97,0,*78
1504897531.76,27842,17.25,73718.5,2.85,-28.63,-28.85,0,*71
1504897532.99,27843,17.25,73720.8,2.87,-28.85,-29.01,0,*77
1504897534.21,27844,17.25,73720.8,2.87,-28.85,-29.13,0,*73
1504897535.44,27845,17.25,73720.5,2.87,-28.85,-29.01,0,*71
1504897536.71,27846,17.31,73724.3,2.89,-28.63,-28.79,0,*7A
1504897537.93,27847,17.25,73720.8,2.87,-28.85,-29.13,0,*70
1504897539.21,27848,17.25,73722.3,2.89,-29.01,-29.13,0,*7C
1504897540.46,27849,17.25,73722.0,2.89,-29.13,-29.45,0,*7D
1504897541.74,27850,17.31,73720.8,2.89,-29.13,-29.35,0,*72
1504897543.03,27851,17.25,73720.8,2.85,-29.35,-29.51,0,*79
1504897544.25,27852,17.25,73722.8,2.87,-29.29,-29.45,0,*70
1504897545.51,27853,17.31,73722.3,2.87,-29.35,-29.51,0,*79
1504897546.78,27854,17.25,73720.5,2.87,-29.35,-29.51,0,*7E
1504897548.04,27855,17.25,73720.3,2.85,-29.35,-29.67,0,*78
1504897549.27,27856,17.31,73722.8,2.85,-29.23,-29.57,0,*7F
1504897550.55,27857,17.25,73718.8,2.85,-29.35,-29.39,0,*71
1504897551.81,27858,17.25,73720.3,2.85,-29.23,-29.51,0,*77
1504897553.1,27859,17.31,73720.5,2.85,-29.35,-29.51,0,*71
1504897554.35,27860,17.25,73716.5,2.85,-29.23,-29.39,0,*72
1504897555.63,27861,17.31,73722.5,2.85,-29.17,-29.51,0,*7A
1504897556.92,27862,17.25,73716.3,2.85,-29.35,-29.51,0,*79
1504897558.15,27863,17.25,73718.5,2.83,-29.39,-29.57,0,*74
1504897559.41,27864,17.25,73718.8,2.83,-29.35,-29.39,0,*77
1504897560.67,27865,17.25,73718.5,2.83,-29.35,-29.51,0,*78
1504897561.91,27866,17.25,73718.8,2.83,-29.51,-29.57,0,*7F
1504897563.14,27867,17.25,73716.3,2.81,-29.45,-29.61,0,*7C
1504897564.41,27868,17.25,73718.3,2.81,-29.39,-29.57,0,*7D
1504897565.67,27869,17.25,73716.3,2.81,-29.39,-29.57,0,*7C
1504897566.93,27870,17.25,73716.0,2.81,-29.29,-29.57,0,*75
1504897568.19,27871,17.31,73720.3,2.81,-29.29,-29.57,0,*74
1504897569.44,27872,17.25,73722.8,2.81,-29.29,-29.45,0,*74
1504897570.7,27873,17.25,73720.5,2.81,-29.29,-29.57,0,*76
1504897571.95,27874,17.25,73720.0,2.81,-29.07,-29.29,0,*74
1504897573.18,27875,17.25,73722.3,2.81,-28.85,-28.97,0,*7A
1504897574.42,27876,17.25,73718.8,2.81,-28.69,-28.85,0,*78
1504897575.7,27877,17.25,73712.5,2.81,-28.75,-28.91,0,*71
1504897576.93,27878,17.25,73716.8,2.83,-28.31,-28.63,0,*71
1504897578.13,27879,17.31,73716.3,2.83,-28.37,-28.53,0,*75
1504897579.37,27880,17.25,73718.8,2.81,-28.37,-28.53,0,*71
1504897580.62,27881,17.25,73712.3,2.83,-27.99,-28.05,0,*7A
1504897581.85,27882,17.25,73716.5,2.83,-28.15,-28.21,0,*74
1504897583.08,27883,17.25,73716.8,2.85,-28.15,-28.37,0,*74
1504897584.32,27884,17.31,73718.8,2.87,-28.47,-28.59,0,*7E
1504897585.6,27885,17.25,73720.3,2.85,-28.47,-28.63,0,*74
1504897586.83,27886,17.25,73716.3,2.87,-28.79,-28.85,0,*70
1504897588.09,27887,17.25,73720.0,2.87,-28.91,-29.01,0,*7A
1504897589.34,27888,17.25,73720.3,2.85,-28.85,-28.91,0,*7A
1504897590.57,27889,17.25,73718.8,2.85,-28.69,-28.69,0,*7E
1504897591.85,27890,17.25,73712.8,2.85,-28.79,-28.91,0,*70
1504897593.07,27891,17.25,73718.5,2.87,-28.97,-29.17,0,*7C
1504897594.33,27892,17.25,73714.8,2.85,-28.85,-28.91,0,*71
1504897595.6,27893,17.25,73716.5,2.85,-28.79,-28.79,0,*75
1504897596.86,27894,17.25,73716.3,2.85,-28.85,-29.17,0,*78
1504897598.12,27895,17.25,73716.0,2.85,-28.53,-28.63,0,*70
1504897599.35,27896,17.25,73718.0,2.85,-28.53,-28.69,0,*79
1504897600.63,27897,17.31,73716.3,2.85,-28.47,-28.63,0,*77
1504897601.85,27898,17.25,73714.5,2.87,-28.31,-28.43,0,*79
1504897603.05,27899,17.25,73712.8,2.87,-28.15,-28.31,0,*7B
1504897604.3,27900,17.25,73718.0,2.85,-28.31,-28.47,0,*7F
1504897605.56,27901,17.25,73716.5,2.87,-28.59,-28.59,0,*7D
1504897606.81,27902,17.25,73716.0,2.87,-28.47,-28.63,0,*78
1504897608.05,27903,17.25,73718.5,2.87,-28.63,-28.75,0,*78
1504897609.3,27904,17.25,73716.8,2.87,-28.79,-29.01,0,*76
1504897610.51,27905,17.31,73716.8,2.87,-28.85,-28.97,0,*7A
1504897611.72,27906,17.25,73714.5,2.87,-28.97,-29.13,0,*77
1504897612.98,27907,17.25,73714.8,2.87,-29.17,-29.35,0,*7B
1504897614.22,27908,17.25,73712.8,2.87,-29.01,-29.29,0,*7E
1504897615.47,27909,17.25,73714.8,2.87,-29.17,-29.29,0,*78
1504897616.71,27910,17.25,73712.8,2.87,-29.01,-29.29,0,*77
1504897618.0,27911,17.25,73714.5,2.85,-29.39,-29.51,0,*70
1504897619.25,27912,17.25,73716.8,2.87,-29.29,-29.35,0,*72
1504897620.51,27913,17.25,73718.3,2.85,-28.91,-28.97,0,*7A
1504897621.79,27914,17.25,73716.5,2.85,-28.79,-28.91,0,*7D
1504897623.04,27915,17.25,73718.3,2.87,-28.59,-28.75,0,*76
1504897624.25,27916,17.25,73714.5,2.87,-28.97,-29.13,0,*76
1504897625.51,27917,17.25,73716.5,2.85,-29.07,-29.35,0,*79
1504897626.71,27918,17.25,73714.8,2.87,-28.85,-28.97,0,*76
1504897627.96,27919,17.25,73716.5,2.85,-28.91,-29.07,0,*78
1504897629.22,27920,17.25,73718.5,2.87,-28.79,-28.63,0,*75
1504897630.48,27921,17.25,73718.5,2.85,-28.85,-28.91,0,*78
1504897631.73,27922,17.25,73718.0,2.85,-28.85,-28.91,0,*7B
1504897632.99,27923,17.25,73716.5,2.85,-28.85,-29.17,0,*75
1504897634.26,27924,17.25,73714.8,2.85,-28.79,-28.79,0,*78
1504897635.51,27925,17.25,73718.3,2.85,-28.85,-29.01,0,*74
1504897636.73,27926,17.25,73716.3,2.87,-28.97,-29.13,0,*75
1504897637.99,27927,17.25,73716.5,2.85,-29.07,-29.35,0,*7A
1504897639.25,27928,17.25,73718.3,2.85,-29.07,-29.35,0,*75
1504897640.5,27929,17.25,73716.0,2.85,-29.07,-29.35,0,*74
1504897641.73,27930,17.25,73716.0,2.85,-29.07,-29.23,0,*7B
1504897643.01,27931,17.25,73720.3,2.85,-29.17,-29.35,0,*7C
1504897644.29,27932,17.25,73720.8,2.85,-29.17,-29.51,0,*7D
1504897645.55,27933,17.25,73718.8,2.85,-29.23,-29.51,0,*7B
1504897646.8,27934,17.25,73720.5,2.85,-29.23,-29.51,0,*7C
1504897648.03,27935,17.25,73718.5,2.83,-29.07,-29.39,0,*73
1504897649.25,27936,17.25,73718.8,2.83,-29.23,-29.39,0,*76
1504897650.46,27937,17.25,73718.8,2.83,-29.23,-29.57,0,*7F
1504897651.71,27938,17.25,73712.5,2.83,-29.17,-29.39,0,*7F
1504897652.97,27939,17.25,73716.3,2.83,-29.35,-29.51,0,*70
1504897654.23,27940,17.25,73716.5,2.81,-29.13,-29.45,0,*7D
1504897655.48,27941,17.25,73716.3,2.81,-29.23,-29.39,0,*74
1504897656.7,27942,17.25,73714.3,2.81,-28.97,-29.23,0,*72
1504897657.96,27943,17.25,73720.8,2.83,-29.01,-29.17,0,*78
1504897659.18,27944,17.25,73722.0,2.83,-29.01,-29.23,0,*78
1504897660.44,27945,17.25,73722.8,2.81,-29.13,-29.45,0,*78
1504897661.71,27946,17.25,73720.0,2.81,-29.13,-29.29,0,*71
1504897662.96,27947,17.25,73718.8,2.81,-29.23,-29.39,0,*72
1504897664.22,27948,17.25,73718.5,2.83,-28.91,-29.35,0,*7B
1504897665.46,27949,17.25,73718.0,2.81,-29.23,-29.45,0,*77
1504897666.71,27950,17.25,73718.0,2.81,-29.29,-29.45,0,*75
1504897667.96,27951,17.25,73714.3,2.79,-29.13,-29.39,0,*71
1504897669.24,27952,17.25,73718.0,2.81,-29.13,-29.39,0,*75
1504897670.47,27953,17.25,73718.0,2.79,-29.29,-29.45,0,*71
1504897671.71,27954,17.25,73718.0,2.79,-29.13,-29.29,0,*75
1504897672.91,27955,17.25,73718.3,2.79,-29.07,-29.23,0,*7B
1504897674.13,27956,17.25,73716.5,2.79,-29.07,-29.29,0,*72
1504897675.36,27957,17.25,73722.0,2.81,-29.07,-29.23,0,*7E
1504897676.59,27958,17.25,73722.3,2.79,-28.91,-28.97,0,*76
1504897677.82,27959,17.25,73716.0,2.79,-28.43,-28.69,0,*79
1504897679.07,27960,17.25,73712.0,2.79,-28.59,-28.75,0,*75
1504897680.32,27961,17.25,73712.3,2.81,-28.75,-28.85,0,*72
1504897681.53,27962,17.25,73712.0,2.79,-28.85,-29.07,0,*72
1504897682.75,27963,17.25,73712.8,2.79,-28.97,-29.13,0,*75
1504897683.97,27964,17.25,73716.5,2.79,-28.97,-29.13,0,*72
1504897685.19,27965,17.25,73716.3,2.79,-28.69,-28.75,0,*73
1504897686.45,27966,17.25,73716.0,2.81,-28.69,-28.91,0,*7D
1504897687.7,27967,17.25,73714.5,2.81,-28.91,-29.07,0,*75
1504897688.96,27968,17.25,73716.0,2.81,-28.91,-29.07,0,*7A
1504897690.19,27969,17.25,73718.0,2.79,-28.91,-28.97,0,*74
1504897691.42,27970,17.25,73722.8,2.81,-28.85,-29.07,0,*76
1504897692.7,27971,17.25,73718.8,2.81,-28.91,-29.13,0,*77
1504897693.95,27972,17.25,73720.8,2.81,-28.91,-29.23,0,*77
1504897695.2,27973,17.25,73722.8,2.81,-28.97,-29.29,0,*7A
1504897696.45,27974,17.25,73720.8,2.81,-29.07,-29.29,0,*75
1504897697.67,27975,17.25,73716.5,2.81,-28.97,-29.23,0,*76
1504897698.93,27976,17.25,73722.3,2.79,-28.91,-29.13,0,*77
1504897700.18,27977,17.25,73718.8,2.79,-28.91,-29.13,0,*76
1504897701.44,27978,17.25,73722.8,2.81,-28.91,-28.97,0,*73
1504897702.72,27979,17.25,73716.8,2.81,-28.75,-28.91,0,*7E
1504897703.97,27980,17.25,73720.8,2.81,-28.59,-28.69,0,*71
1504897705.25,27981,17.25,73722.8,2.81,-28.59,-28.75,0,*7D